Aérodrome :
LOGIN :

S'inscrire | Disclaimer

   EN    FR    IT 

 










Légende :    VFR   VFR Marginal   IFR   IFR Intensif   IFR Très Intensif
Visi : 
Plafond : 
>= 8 km
>= 3000ft
5 à 8 km
1000 à 3000 ft
1500m à 5 km
500 à 1000 ft
800 à 1500m
200 à 500 ft
< 800m
< 200 ft
Symboles :   Orages  Brouillard  Fortes neiges  Fortes précipitations  Vent > 20 kt
SIGMETs :   Divers  Orages  Givrage  Turbulence  Onde Orograph.  Cendres Volcan.







- Altitude de l'aérodrome : 32 ft
- Code IATA : LKZ


EGUL - RAF Lakenheath

DERNIER METAR :
  • 190301Z AUTO 15004KT 9999 -DZ BKN065 05/05 A3003 RMK AO2 DZB01 SLP173

METARs EXPIRÉS :
  • 190205Z AUTO 16003KT 9999 SCT013 BKN060 BKN080 BKN120 05/05 A3005 RMK AO2 SLP179
  • 190156Z AUTO 17004KT 9999 BKN013 OVC080 05/05 A3005 RMK AO2 SLP179 T00530053
  • 190132Z AUTO 16004KT 9999 BKN014 BKN065 05/05 A3006 RMK AO2 CIG 014V065 BKN014 V SCT SLP183
  • 190056Z AUTO 17003KT 9999 SCT130 05/05 A3007 RMK AO2 SLP186 T00530053

Prévision TAF périmée.
Pas de NOTAMs connus pour ce terrain.



MET'MAP, la Météo Aéronautique d'un coup d'oeil ! - Copyright ORBIFLY Décembre 2007 - Disclaimer

ORBIFLY MET'MAP TEAM :

Programmation & Développement : Alexandra Zaïnal
Conception & Développement : Baudouin d'Aumeries
Co-Programmation & Développement : Marc-Olivier Méhu
Soutien technique & logistique : Manuel Goepfert

Contact : metmap@orbifly.com




SOURCES & CREDITS :

   NOAA